category,name,time,total,current
燃油(Oil),大林#4,00:00:00,375,260.8
燃油(Oil),大林#4,00:10:00,375,259.7
燃油(Oil),大林#4,00:20:00,375,258.1
燃油(Oil),大林#4,00:30:00,375,259.7
燃油(Oil),大林#4,00:40:00,375,261.4
燃油(Oil),大林#4,00:50:00,375,259.2
燃油(Oil),大林#4,01:00:00,375,259.7
燃油(Oil),大林#4,01:10:00,375,260.3
燃油(Oil),大林#4,01:20:00,375,259.2
燃油(Oil),大林#4,01:30:00,375,259.7
燃油(Oil),大林#4,01:40:00,375,259.2
燃油(Oil),大林#4,01:50:00,375,258.6
燃油(Oil),大林#4,02:00:00,375,259.7
燃油(Oil),大林#4,02:10:00,375,259.7
燃油(Oil),大林#4,02:20:00,375,259.2
燃油(Oil),大林#4,02:30:00,375,258.6
燃油(Oil),大林#4,02:40:00,375,241.1
燃油(Oil),大林#4,02:50:00,375,213.7
燃油(Oil),大林#4,03:00:00,375,200
燃油(Oil),大林#4,03:10:00,375,186.3
燃油(Oil),大林#4,03:20:00,375,162.3
燃油(Oil),大林#4,03:30:00,375,150.8
燃油(Oil),大林#4,03:40:00,375,150.2
燃油(Oil),大林#4,03:50:00,375,148.6
燃油(Oil),大林#4,04:00:00,375,144.7
燃油(Oil),大林#4,04:10:00,375,145.3
燃油(Oil),大林#4,04:20:00,375,146.9
燃油(Oil),大林#4,04:30:00,375,147.5
燃油(Oil),大林#4,04:40:00,375,145.8
燃油(Oil),大林#4,04:50:00,375,145.3
燃油(Oil),大林#4,05:00:00,375,145.3
燃油(Oil),大林#4,05:10:00,375,145.3
燃油(Oil),大林#4,05:20:00,375,146.9
燃油(Oil),大林#4,05:30:00,375,143.1
燃油(Oil),大林#4,05:40:00,375,145.3
燃油(Oil),大林#4,05:50:00,375,144.7
燃油(Oil),大林#4,06:00:00,375,144.2
燃油(Oil),大林#4,06:10:00,375,155.7
燃油(Oil),大林#4,06:20:00,375,166.6
燃油(Oil),大林#4,06:30:00,375,180.9
燃油(Oil),大林#4,06:40:00,375,196.2
燃油(Oil),大林#4,06:50:00,375,207.7
燃油(Oil),大林#4,07:00:00,375,224.1
燃油(Oil),大林#4,07:10:00,375,249.9
燃油(Oil),大林#4,07:20:00,375,259.2
燃油(Oil),大林#4,07:30:00,375,261.9
燃油(Oil),大林#4,07:40:00,375,264.1
燃油(Oil),大林#4,07:50:00,375,263.5
燃油(Oil),大林#4,08:00:00,375,260.8
燃油(Oil),大林#4,08:10:00,375,262.5
燃油(Oil),大林#4,08:20:00,375,259.7
燃油(Oil),大林#4,08:30:00,375,265.2
燃油(Oil),大林#4,08:40:00,375,261.9
燃油(Oil),大林#4,08:50:00,375,261.9
燃油(Oil),大林#4,09:00:00,375,261.9
燃油(Oil),大林#4,09:10:00,375,261.4
燃油(Oil),大林#4,09:20:00,375,260.3
燃油(Oil),大林#4,09:30:00,375,261.4
燃油(Oil),大林#4,09:40:00,375,261.4
燃油(Oil),大林#4,09:50:00,375,260.8
燃油(Oil),大林#4,10:00:00,375,261.4
燃油(Oil),大林#4,10:10:00,375,259.2
燃油(Oil),大林#4,10:20:00,375,262.5
燃油(Oil),大林#4,10:30:00,375,259.7
燃油(Oil),大林#4,10:40:00,375,260.3
燃油(Oil),大林#4,10:50:00,375,261.9
燃油(Oil),大林#4,11:00:00,375,260.8
燃油(Oil),大林#4,11:10:00,375,260.8
燃油(Oil),大林#4,11:20:00,375,260.8
燃油(Oil),大林#4,11:30:00,375,261.4
燃油(Oil),大林#4,11:40:00,375,260.3
燃油(Oil),大林#4,11:50:00,375,260.3
燃油(Oil),大林#4,12:00:00,375,261.4
燃油(Oil),大林#4,12:10:00,375,260.3
燃油(Oil),大林#4,12:20:00,375,260.8
燃油(Oil),大林#4,12:30:00,375,261.4
燃油(Oil),大林#4,12:40:00,375,259.7
燃油(Oil),大林#4,12:50:00,375,260.3
燃油(Oil),大林#4,13:00:00,375,258.6
燃油(Oil),大林#4,13:10:00,375,259.7
燃油(Oil),大林#4,13:20:00,375,259.2
燃油(Oil),大林#4,13:30:00,375,259.7
燃油(Oil),大林#4,13:40:00,375,258.6
燃油(Oil),大林#4,13:50:00,375,259.7
燃油(Oil),大林#4,14:00:00,375,258.6
燃油(Oil),大林#4,14:10:00,375,260.8
燃油(Oil),大林#4,14:20:00,375,257.5
燃油(Oil),大林#4,14:30:00,375,260.8
燃油(Oil),大林#4,14:40:00,375,258.1
燃油(Oil),大林#4,14:50:00,375,258.6
燃油(Oil),大林#4,15:00:00,375,259.7
燃油(Oil),大林#4,15:10:00,375,258.1
燃油(Oil),大林#4,15:20:00,375,260.3
燃油(Oil),大林#4,15:30:00,375,256.4
燃油(Oil),大林#4,15:40:00,375,262.5
燃油(Oil),大林#4,15:50:00,375,257.5
燃油(Oil),大林#4,16:00:00,375,259.7
燃油(Oil),大林#4,16:10:00,375,260.8
燃油(Oil),大林#4,16:20:00,375,258.1
燃油(Oil),大林#4,16:30:00,375,260.8
燃油(Oil),大林#4,16:40:00,375,260.3
燃油(Oil),大林#4,16:50:00,375,258.1
燃油(Oil),大林#4,17:00:00,375,258.6
燃油(Oil),大林#4,17:10:00,375,262.5
燃油(Oil),大林#4,17:20:00,375,259.2
燃油(Oil),大林#4,17:30:00,375,259.2
燃油(Oil),大林#4,17:40:00,375,260.8
燃油(Oil),大林#4,17:50:00,375,260.3
燃油(Oil),大林#4,18:00:00,375,259.7
燃油(Oil),大林#4,18:10:00,375,259.2
燃油(Oil),大林#4,18:20:00,375,259.2
燃油(Oil),大林#4,18:30:00,375,259.7
燃油(Oil),大林#4,18:40:00,375,259.2
燃油(Oil),大林#4,18:50:00,375,259.7
燃油(Oil),大林#4,19:00:00,375,258.6
燃油(Oil),大林#4,19:10:00,375,260.3
燃油(Oil),大林#4,19:20:00,375,261.4
燃油(Oil),大林#4,19:30:00,375,260.3
燃油(Oil),大林#4,19:40:00,375,259.2
燃油(Oil),大林#4,19:50:00,375,259.2
燃油(Oil),大林#4,20:00:00,375,259.7
燃油(Oil),大林#4,20:10:00,375,259.7
燃油(Oil),大林#4,20:20:00,375,259.2
燃油(Oil),大林#4,20:30:00,375,259.7
燃油(Oil),大林#4,20:40:00,375,259.2
燃油(Oil),大林#4,20:50:00,375,258.6
燃油(Oil),大林#4,21:00:00,375,258.1
燃油(Oil),大林#4,21:10:00,375,260.3
燃油(Oil),大林#4,21:20:00,375,258.1
燃油(Oil),大林#4,21:30:00,375,258.6
燃油(Oil),大林#4,21:40:00,375,259.2
燃油(Oil),大林#4,21:50:00,375,258.6
燃油(Oil),大林#4,22:00:00,375,259.2
燃油(Oil),大林#4,22:10:00,375,259.2
燃油(Oil),大林#4,22:20:00,375,259.2
燃油(Oil),大林#4,22:30:00,375,258.1
燃油(Oil),大林#4,22:40:00,375,258.1
燃油(Oil),大林#4,22:50:00,375,258.1
燃油(Oil),大林#4,23:00:00,375,259.7
燃油(Oil),大林#4,23:10:00,375,258.1
燃油(Oil),大林#4,23:20:00,375,258.6
燃油(Oil),大林#4,23:30:00,375,257.5
燃油(Oil),大林#4,23:40:00,375,258.1
燃油(Oil),大林#4,23:50:00,375,258.1
